GW6771 Weather Reports


time (UTC)temp
C
wind
direction
speed
KPH
gust
KPH
rain 1hr
cm
rain 24hr
cm
rain mn
cm
humidity
%
barometer
mb
20260506094017 10 0 20.9 29.0 0.00 2.16 0.33 92 1010.6
20260506093016 9 0 16.1 22.5 0.00 2.16 0.33 93 1010.6
20260506092036 9 0 14.5 17.7 0.00 2.16 0.33 93 1010.6
20260506091016 9 0 14.5 19.3 0.00 2.16 0.33 94 1010.4
20260506085016 9 0 12.9 19.3 0.00 2.16 0.33 94 1010.3
20260506084036 9 0 16.1 20.9 0.00 2.18 0.33 94 1010.2
20260506083016 9 0 14.5 17.7 0.00 2.18 0.33 94 1010.2
20260506082016 9 23 14.5 19.3 0.00 2.21 0.33 94 1010.0
20260506081016 9 0 14.5 20.9 0.00 2.21 0.33 94 1009.9
20260506073016 8 23 17.7 25.7 0.00 2.24 0.33 95 1009.7
20260506072016 8 23 14.5 20.9 0.03 2.24 0.33 95 1009.5
20260506071016 8 23 17.7 20.9 0.03 2.24 0.33 95 1009.4
20260506062016 8 0 17.7 22.5 0.00 2.21 0.33 95 1008.9
20260506061016 7 0 19.3 25.7 0.00 2.21 0.33 95 1008.9
20260506051016 8 0 20.9 27.4 0.05 2.21 0.33 95 1008.3
20260506045016 8 0 20.9 27.4 0.05 2.21 0.30 95 1008.2
20260506044016 8 0 19.3 25.7 0.05 2.21 0.30 95 1008.2
20260506043016 8 0 17.7 24.1 0.05 2.21 0.30 95 1008.1
20260506042016 8 0 17.7 24.1 0.05 2.21 0.30 95 1008.1
20260506041016 8 0 17.7 24.1 0.05 2.18 0.28 95 1008.1
20260506040036 8 0 17.7 22.5 0.05 2.18 0.28 96 1008.1
20260506035016 8 0 17.7 24.1 0.05 2.16 0.25 95 1008.1
20260506034016 8 0 17.7 24.1 0.08 2.16 0.25 95 1008.1
20260506033016 8 0 17.7 24.1 0.05 2.13 0.23 95 1008.2
20260506032016 8 0 19.3 29.0 0.05 2.13 0.23 95 1008.1
20260506031016 8 0 16.1 22.5 0.05 2.11 0.23 95 1008.2
20260506030016 8 0 16.1 25.7 0.05 2.11 0.23 95 1008.2
20260506025116 8 0 14.5 20.9 0.05 2.11 0.20 95 1008.3
20260506024016 8 0 16.1 20.9 0.03 2.08 0.18 95 1008.3
20260506023016 8 0 14.5 17.7 0.05 2.08 0.18 95 1008.2
20260506022016 8 0 16.1 22.5 0.05 2.08 0.18 95 1008.2
20260506021016 8 0 17.7 24.1 0.03 2.06 0.15 95 1008.2
20260506020016 8 0 16.1 19.3 0.05 2.06 0.15 95 1008.1
20260506015035 8 0 14.5 20.9 0.05 2.06 0.15 95 1008.2
20260506014016 9 0 14.5 17.7 0.05 2.06 0.15 95 1008.2
20260506013035 9 0 16.1 22.5 0.05 2.03 0.15 95 1008.2
20260506012015 9 0 16.1 20.9 0.05 2.03 0.15 95 1008.1
20260506011015 9 0 16.1 20.9 0.05 2.03 0.15 95 1008.1
20260506010015 9 0 17.7 24.1 0.05 2.03 0.13 95 1008.1
20260506005015 10 0 16.1 20.9 0.05 2.03 0.13 95 1008.1
20260506004056 10 23 16.1 20.9 0.03 2.01 0.10 95 1008.2
20260506003016 10 23 14.5 19.3 0.03 2.01 0.10 95 1008.2
20260506002037 10 0 17.7 24.1 0.05 2.01 0.10 95 1008.2
20260506001015 10 23 14.5 24.1 0.03 1.98 0.08 95 1008.2
20260506000015 10 23 17.7 24.1 0.03 1.98 0.08 96 1008.2
20260505235035 10 23 16.1 20.9 0.03 1.98 0.08 96 1008.2
20260505234015 10 23 9.7 16.1 0.05 1.98 0.08 95 1008.2
20260505233015 10 23 12.9 16.1 0.05 1.98 0.08 95 1008.3
20260505232015 10 23 14.5 19.3 0.05 1.96 0.05 95 1008.2
20260505231015 11 0 14.5 22.5 0.05 1.96 0.05 96 1008.2
20260505230035 10 0 11.3 16.1 0.05 1.96 0.05 96 1008.1
20260505225015 10 0 14.5 19.3 0.08 1.96 0.05 96 1008.1
20260505224016 11 0 14.5 17.7 0.08 1.93 0.05 95 1008.2
20260505223015 11 0 11.3 14.5 0.10 1.93 0.05 96 1008.2
20260505222015 11 0 11.3 14.5 0.13 1.93 0.03 96 1008.3
20260505221015 11 0 9.7 12.9 0.15 1.93 0.03 96 1008.4
20260505220015 11 0 11.3 17.7 0.18 1.91 1.91 96 1008.4
20260505215036 11 0 9.7 16.1 0.23 1.88 1.88 95 1008.4
20260505214016 11 0 9.7 16.1 0.25 1.85 1.85 95 1008.5
20260505213015 11 0 12.9 17.7 0.25 1.83 1.83 95 1008.5
20260505212017 11 0 11.3 16.1 0.23 1.80 1.80 96 1008.6
20260505211036 11 0 14.5 20.9 0.23 1.75 1.75 95 1008.6
20260505210016 11 338 9.7 14.5 0.18 1.73 1.73 95 1008.5
20260505205015 11 338 8.0 11.3 0.13 1.65 1.65 95 1008.5
20260505204016 11 315 8.0 12.9 0.13 1.60 1.60 95 1008.5
20260505203016 11 338 6.4 14.5 0.15 1.57 1.57 95 1008.4
20260505202016 11 338 8.0 11.3 0.23 1.55 1.55 95 1008.4
20260505201036 11 338 8.0 12.9 0.23 1.55 1.55 95 1008.3
20260505200016 11 338 11.3 17.7 0.30 1.55 1.55 95 1008.2
20260505195056 11 338 11.3 19.3 0.33 1.52 1.52 95 1008.0
20260505194015 11 0 12.9 17.7 0.33 1.47 1.47 95 1007.9
20260505193015 11 338 16.1 19.3 0.30 1.42 1.42 95 1007.9
20260505192035 11 0 12.9 17.7 0.23 1.35 1.35 95 1007.8
20260505191015 11 0 12.9 16.1 0.23 1.30 1.30 96 1007.8
20260505190035 11 338 12.9 17.7 0.20 1.24 1.24 95 1007.7
20260505185015 11 338 11.3 16.1 0.20 1.17 1.17 95 1007.7
20260505184017 11 338 12.9 17.7 0.20 1.14 1.14 95 1007.6
20260505183016 11 338 11.3 16.1 0.20 1.12 1.12 95 1007.5
20260505182056 11 338 12.9 17.7 0.23 1.09 1.09 95 1007.5
20260505181015 11 338 11.3 16.1 0.23 1.09 1.09 95 1007.5
20260505180015 11 338 11.3 17.7 0.23 1.04 1.04 95 1007.5
20260505175035 11 338 9.7 16.1 0.18 0.99 0.99 95 1007.5
20260505174016 11 338 9.7 14.5 0.15 0.94 0.94 95 1007.5
20260505173015 11 0 12.9 16.1 0.15 0.91 0.91 95 1007.5
20260505172035 11 0 14.5 17.7 0.10 0.89 0.89 95 1007.6
20260505171015 11 0 12.9 17.7 0.05 0.84 0.84 95 1007.6
20260505170015 11 0 14.5 22.5 0.05 0.79 0.79 95 1007.5
20260505165015 11 0 12.9 17.7 0.05 0.79 0.79 95 1007.5
20260505164015 11 0 14.5 19.3 0.08 0.79 0.79 95 1007.5
20260505163015 11 0 16.1 19.3 0.13 0.79 0.79 95 1007.5
20260505162015 11 0 16.1 19.3 0.15 0.79 0.79 95 1007.5
20260505161015 11 0 12.9 19.3 0.18 0.79 0.79 95 1007.5
20260505153017 11 23 16.1 22.5 0.18 0.66 0.66 95 1007.5
20260505152017 11 23 17.7 24.1 0.18 0.61 0.61 95 1007.5
20260505151017 11 0 17.7 24.1 0.18 0.61 0.61 95 1007.5
20260505125037 11 23 20.9 30.6 0.03 0.25 0.23 95 1007.5
20260505124017 11 23 20.9 27.4 0.03 0.23 0.20 95 1007.5
20260505123017 12 23 20.9 27.4 0.03 0.25 0.20 95 1007.5
20260505122018 12 23 22.5 27.4 0.03 0.25 0.20 95 1007.5
20260505121017 12 23 16.1 24.1 0.03 0.25 0.20 96 1007.5
20260505120017 12 23 14.5 22.5 0.03 0.25 0.20 96 1007.6
20260505115017 12 23 16.1 22.5 0.05 0.25 0.20 96 1007.6
20260505114017 11 23 16.1 22.5 0.03 0.23 0.18 95 1007.6
20260505113037 11 23 19.3 22.5 0.05 0.23 0.18 95 1007.8
20260505112037 12 23 17.7 24.1 0.05 0.23 0.18 95 1007.8
20260505111017 12 23 16.1 24.1 0.05 0.23 0.18 95 1008.0
20260505102017 11 23 14.5 19.3 0.05 0.20 0.15 95 1008.3
20260505101017 11 23 11.3 17.7 0.05 0.18 0.13 96 1008.4
20260505100017 11 23 8.0 16.1 0.05 0.18 0.13 96 1008.3
20260505095017 11 45 12.9 24.1 0.03 0.15 0.10 96 1008.4